Change the Weather History Date:

Monday, October 20, 2014

  Actual Average (KLCI) Record (KLCI)
Temperature  
Mean Temperature 44 °F -  
Max Temperature 52 °F 58 °F 70 °F (1984)
Min Temperature 35 °F 37 °F 26 °F (2003)
Degree Days  
Heating Degree Days 22    
Moisture  
Dew Point 34 °F    
Average Humidity 75    
Maximum Humidity 100    
Minimum Humidity 51    
Precipitation  
Precipitation 0.00 in - - ()
Sea Level Pressure  
Sea Level Pressure 29.96 in    
Wind  
Wind Speed 4 mph (WNW)    
Max Wind Speed 10 mph    
Max Gust Speed 16 mph    
Visibility 10 miles    
Events      
Averages and records for this station are not official NWS values.
T = Trace of Precipitation, MM = Missing Value Source: NWS Daily Summary

Daily Weather History Graph

Daily Weather History Graph

Search for Another Location

Airport or City:

Trip Planner

Search our weather history database for the weather conditions in past years. The results will help you decide how hot, cold, wet, or windy it might be!

Date:

Astronomy

Oct. 20, 2014 Rise Set
Actual Time 7:07 AM EDT 5:55 PM EDT
Civil Twilight 6:38 AM EDT 6:24 PM EDT
Nautical Twilight 6:04 AM EDT 6:57 PM EDT
Astronomical Twilight 5:31 AM EDT 7:31 PM EDT
Moon 3:47 AM EDT (10/20) 4:21 PM EDT (10/20)
Length of Visible Light 11h 46m
Length of Day
10h 47m
Waning Crescent, 10% of the Moon is Illuminated
Oct 20
Waning Crescent
Oct 23
New
Oct 30
First Quarter
Nov 6
Full
Nov 14
Last Quarter

Hourly Weather History & Observations

Time (EDT) Temp. Windchill Dew Point Humidity Pressure Visibility Wind Dir Wind Speed Gust Speed Precip Events Conditions
12:15 AM 39.0 °F - 32.0 °F 76% 29.93 in 10.0 mi Calm Calm - N/A   Overcast
12:35 AM 39.2 °F 33.6 °F 31.5 °F 74% 29.93 in 10.0 mi WNW 8.1 mph - N/A   Overcast
12:55 AM 39.2 °F - 31.5 °F 74% 29.93 in 10.0 mi Calm Calm - N/A   Overcast
1:15 AM 39.2 °F - 31.3 °F 73% 29.94 in 10.0 mi Calm Calm - N/A   Overcast
1:35 AM 38.8 °F 36.5 °F 31.5 °F 75% 29.94 in 10.0 mi WNW 3.5 mph - N/A   Overcast
1:55 AM 39.0 °F 35.7 °F 30.9 °F 73% 29.94 in 10.0 mi WNW 4.6 mph - N/A   Overcast
2:15 AM 38.8 °F 34.6 °F 30.2 °F 71% 29.95 in 10.0 mi NNW 5.8 mph - N/A   Overcast
2:35 AM 38.7 °F - 29.7 °F 70% 29.96 in 10.0 mi Calm Calm - N/A   Overcast
2:55 AM 38.3 °F 34.8 °F 29.1 °F 70% 29.95 in 10.0 mi NW 4.6 mph - N/A   Overcast
3:15 AM 37.9 °F 35.5 °F 28.6 °F 69% 29.95 in 10.0 mi WNW 3.5 mph - N/A   Mostly Cloudy
3:35 AM 37.6 °F - 28.4 °F 69% 29.95 in 10.0 mi Calm Calm - N/A   Mostly Cloudy
3:55 AM 37.6 °F 34.0 °F 28.8 °F 70% 29.96 in 10.0 mi NNW 4.6 mph - N/A   Mostly Cloudy
4:15 AM 36.7 °F 32.9 °F 29.3 °F 75% 29.96 in 10.0 mi NW 4.6 mph - N/A   Scattered Clouds
4:35 AM 36.0 °F - 29.3 °F 77% 29.96 in 10.0 mi Calm Calm - N/A   Clear
4:55 AM 35.6 °F 32.8 °F 29.3 °F 78% 29.96 in 10.0 mi NW 3.5 mph - N/A   Clear
5:15 AM 36.3 °F 33.7 °F 29.5 °F 76% 29.96 in 10.0 mi NW 3.5 mph - N/A   Clear
5:35 AM 37.0 °F 30.4 °F 29.5 °F 74% 29.97 in 10.0 mi West 9.2 mph - N/A   Clear
5:55 AM 36.9 °F 31.4 °F 30.0 °F 76% 29.96 in 10.0 mi WNW 6.9 mph - N/A   Clear
6:15 AM 36.7 °F 30.5 °F 29.8 °F 76% 29.96 in 10.0 mi West 8.1 mph - N/A   Clear
6:35 AM 36.5 °F 29.7 °F 30.2 °F 78% 29.97 in 10.0 mi WNW 9.2 mph 16.1 mph N/A   Clear
6:55 AM 36.7 °F 31.2 °F 30.2 °F 77% 29.97 in 10.0 mi WNW 6.9 mph - N/A   Clear
7:15 AM 36.5 °F 31.8 °F 30.0 °F 77% 29.97 in 10.0 mi WNW 5.8 mph - N/A   Clear
7:35 AM 36.1 °F 32.3 °F 29.7 °F 77% 29.97 in 10.0 mi WNW 4.6 mph - N/A   Clear
7:55 AM 35.8 °F 30.9 °F 29.7 °F 78% 29.99 in 10.0 mi WNW 5.8 mph - N/A   Clear
8:15 AM 35.6 °F 32.8 °F 29.7 °F 79% 29.98 in 10.0 mi North 3.5 mph - N/A   Clear
8:35 AM 36.5 °F 33.9 °F 30.2 °F 78% 29.99 in 10.0 mi WNW 3.5 mph - N/A   Scattered Clouds
8:55 AM 37.8 °F 32.5 °F 30.2 °F 74% 29.99 in 10.0 mi West 6.9 mph - N/A   Overcast
9:15 AM 39.0 °F 33.4 °F 30.6 °F 72% 29.99 in 10.0 mi West 8.1 mph - N/A   Mostly Cloudy
9:35 AM 40.5 °F 35.1 °F 31.1 °F 69% 29.99 in 10.0 mi West 8.1 mph - N/A   Scattered Clouds
9:55 AM 40.8 °F 36.2 °F 31.5 °F 69% 30.00 in 10.0 mi West 6.9 mph - N/A   Mostly Cloudy
10:15 AM 41.0 °F 35.8 °F 31.5 °F 69% 30.00 in 10.0 mi WNW 8.1 mph - N/A   Overcast
10:35 AM 42.6 °F 37.2 °F 31.8 °F 66% 29.99 in 10.0 mi West 9.2 mph - N/A   Scattered Clouds
10:55 AM 42.8 °F 38.6 °F 32.0 °F 66% 29.98 in 10.0 mi NW 6.9 mph - N/A   Scattered Clouds
11:15 AM 43.2 °F 41.5 °F 32.2 °F 65% 29.99 in 10.0 mi West 3.5 mph - N/A   Scattered Clouds
11:35 AM 43.2 °F 38.4 °F 31.6 °F 64% 29.98 in 10.0 mi West 8.1 mph - N/A   Mostly Cloudy
11:55 AM 44.2 °F 41.8 °F 32.0 °F 62% 29.98 in 10.0 mi West 4.6 mph - N/A   Scattered Clouds
12:15 PM 45.5 °F 41.3 °F 32.4 °F 60% 29.97 in 10.0 mi West 8.1 mph - N/A   Scattered Clouds
12:35 PM 48.6 °F - 33.6 °F 56% 29.96 in 10.0 mi WNW 10.4 mph - N/A   Mostly Cloudy
12:55 PM 49.5 °F - 34.0 °F 55% 29.96 in 10.0 mi West 10.4 mph - N/A   Scattered Clouds
1:15 PM 50.0 °F - 34.7 °F 56% 29.94 in 10.0 mi West 6.9 mph - N/A   Clear
1:35 PM 49.5 °F - 32.5 °F 52% 29.94 in 10.0 mi West 5.8 mph - N/A   Scattered Clouds
1:55 PM 50.0 °F - 33.4 °F 53% 29.94 in 10.0 mi WNW 6.9 mph - N/A   Overcast
2:15 PM 52.0 °F - 34.3 °F 51% 29.93 in 10.0 mi NW 8.1 mph - N/A   Overcast
2:35 PM 50.5 °F - 34.3 °F 54% 29.93 in 10.0 mi NW 5.8 mph - N/A   Mostly Cloudy
2:55 PM 51.8 °F - 34.9 °F 53% 29.93 in 10.0 mi NNW 5.8 mph - N/A   Scattered Clouds
3:15 PM 50.9 °F - 35.6 °F 56% 29.93 in 10.0 mi NW 5.8 mph - N/A   Scattered Clouds
3:35 PM 51.3 °F - 35.8 °F 55% 29.92 in 10.0 mi West 5.8 mph - N/A   Mostly Cloudy
3:55 PM 51.4 °F - 36.0 °F 56% 29.93 in 10.0 mi Calm Calm - N/A   Overcast
4:15 PM 52.0 °F - 35.8 °F 54% 29.93 in 10.0 mi Calm Calm - N/A   Scattered Clouds
4:35 PM 51.4 °F - 36.1 °F 56% 29.93 in 10.0 mi West 3.5 mph - N/A   Clear
4:55 PM 51.4 °F - 36.5 °F 57% 29.93 in 10.0 mi Calm Calm - N/A   Clear
5:15 PM 50.4 °F - 37.6 °F 62% 29.93 in 10.0 mi Calm Calm - N/A   Clear
5:35 PM 48.2 °F - 41.5 °F 78% 29.94 in 10.0 mi Calm Calm - N/A   Mostly Cloudy
5:55 PM 46.8 °F - 41.5 °F 82% 29.93 in 10.0 mi Calm Calm - N/A   Overcast
6:15 PM 46.4 °F - 41.4 °F 83% 29.94 in 10.0 mi Calm Calm - N/A   Overcast
6:35 PM 45.7 °F - 42.1 °F 87% 29.94 in 10.0 mi Calm Calm - N/A   Overcast
6:55 PM 45.1 °F - 41.9 °F 88% 29.95 in 10.0 mi Calm Calm - N/A   Overcast
7:15 PM 44.8 °F - 42.8 °F 93% 29.95 in 10.0 mi Calm Calm - N/A   Overcast
7:35 PM 45.0 °F - 42.8 °F 92% 29.95 in 10.0 mi Calm Calm - N/A   Overcast
7:55 PM 44.6 °F - 42.6 °F 93% 29.96 in 10.0 mi Calm Calm - N/A   Overcast
8:15 PM 43.2 °F - 41.7 °F 95% 29.96 in 10.0 mi Calm Calm - N/A   Scattered Clouds
8:35 PM 41.4 °F - 41.4 °F 100% 29.96 in 10.0 mi Calm Calm - N/A   Clear
8:55 PM 40.8 °F - 40.8 °F 100% 29.97 in 10.0 mi Calm Calm - N/A   Scattered Clouds
9:15 PM 39.6 °F - 39.6 °F 100% 29.97 in 10.0 mi Calm Calm - N/A   Mostly Cloudy
9:35 PM 40.1 °F - 40.1 °F 100% 29.97 in 10.0 mi Calm Calm - N/A   Overcast
9:55 PM 40.1 °F - 40.1 °F 100% 29.97 in 10.0 mi Calm Calm - N/A   Overcast
10:15 PM 40.1 °F - 40.1 °F 100% 29.97 in 10.0 mi Calm Calm - N/A   Overcast
10:35 PM 39.6 °F - 39.6 °F 100% 29.98 in 10.0 mi Calm Calm - N/A   Mostly Cloudy
10:55 PM 39.4 °F - 39.4 °F 100% 29.97 in 10.0 mi Calm Calm - N/A   Mostly Cloudy
11:15 PM 39.0 °F - 39.0 °F 100% 29.97 in 10.0 mi Calm Calm - N/A   Scattered Clouds
11:35 PM 39.2 °F - 39.2 °F 100% 29.98 in 10.0 mi Calm Calm - N/A   Mostly Cloudy
11:55 PM 39.4 °F - 39.4 °F 100% 29.98 in 10.0 mi Calm Calm - N/A   Mostly Cloudy